Location: Kawakawa
(35.3830°S, 174.0670°E)
Time: 15:51:33
(UTC+13:00)

Explorer 7 - Pass Details

Date: 13 December 2019
Orbit: 485 x 679 km, 50.3° (Epoch: 19 January)

Event Time Altitude Azimuth Distance (km) Brightness Sun altitude
Rises 03:05:33 0° 333° (NNW) 2,674 - -26.2°
Reaches altitude 10° 03:07:58 10° 342° (NNW) 1,760 - -25.9°
Maximum altitude 03:11:32 32° 46° (NE) 886 - -25.6°
Exits shadow 03:12:53 25° 85° (E) 1,049 8.4 -25.5°
Drops below altitude 10° 03:15:01 10° 111° (ESE) 1,710 10.0 -25.2°
Sets 03:17:19 0° 121° (ESE) 2,585 11.2 -25.0°
